Wautoma, WI

3:22 PM CDT on May 22, 2017 (GMT -0500)
Wautoma

Weather History for KY50 - April, 2014

Change the Weather History Date:

Thursday, April 17, 2014

  Actual Average (KPCZ) Record (KPCZ)
Temperature  
Mean Temperature 46 °F -  
Max Temperature 54 °F 57 °F 83 °F (1958)
Min Temperature 36 °F 36 °F 17 °F (1983)
Degree Days  
Heating Degree Days 20    
Moisture  
Dew Point 33 °F    
Average Humidity 62    
Maximum Humidity 74    
Minimum Humidity 49    
Precipitation  
Precipitation 0.00 in - - ()
Sea Level Pressure  
Sea Level Pressure 30.14 in    
Wind  
Wind Speed 11 mph (West)    
Max Wind Speed 17 mph    
Max Gust Speed 23 mph    
Visibility 10 miles    
Events      
Averages and records for this station are not official NWS values.
T = Trace of Precipitation, MM = Missing Value Source: NWS Daily Summary

Daily Weather History Graph

Daily Weather History Graph

Search for Another Location

Airport or City:

Trip Planner

Search our weather history database for the weather conditions in past years. The results will help you decide how hot, cold, wet, or windy it might be!

Date:

Astronomy

Apr. 17, 2014 Rise Set
Actual Time 6:10 AM CDT 7:43 PM CDT
Civil Twilight 5:40 AM CDT 8:14 PM CDT
Nautical Twilight 5:03 AM CDT 8:50 PM CDT
Astronomical Twilight 4:24 AM CDT 9:30 PM CDT
Moon 10:33 PM CDT (4/17) 7:38 AM CDT (4/17)
Length of Visible Light 14h 33m
Length of Day
13h 33m
Waning Gibbous, 93% of the Moon is Illuminated
Apr 17
Waning Gibbous
Apr 22
Last Quarter
Apr 29
New
May 6
First Quarter
May 14
Full

Hourly Weather History & Observations

Time (CDT) Temp. Windchill Dew Point Humidity Pressure Visibility Wind Dir Wind Speed Gust Speed Precip Events Conditions
12:56 AM 42.8 °F 35.8 °F 28.4 °F 57% 30.06 in 10.0 mi SE 13.8 mph - N/A   Overcast
1:56 AM 41.9 °F 36.9 °F 28.0 °F 58% 30.05 in 10.0 mi SE 8.1 mph - N/A   Overcast
2:56 AM 41.9 °F 35.4 °F 29.1 °F 61% 30.02 in 10.0 mi SE 11.5 mph - N/A   Mostly Cloudy
3:56 AM 41.9 °F 35.9 °F 28.0 °F 58% 30.01 in 10.0 mi SE 10.4 mph - N/A   Overcast
4:56 AM 41.9 °F 36.9 °F 29.1 °F 61% 30.01 in 10.0 mi SE 8.1 mph - N/A   Overcast
5:56 AM 41.9 °F 35.9 °F 29.1 °F 61% 30.00 in 10.0 mi SE 10.4 mph - 0.00 in   Overcast
6:56 AM 41.9 °F 36.3 °F 29.1 °F 61% 30.01 in 10.0 mi SE 9.2 mph - N/A   Overcast
7:56 AM 43.0 °F 38.8 °F 31.1 °F 63% 30.04 in 10.0 mi SSE 6.9 mph - N/A   Mostly Cloudy
8:56 AM 43.9 °F 40.5 °F 32.0 °F 63% 30.06 in 10.0 mi South 5.8 mph - N/A   Overcast
9:05 AM 44.6 °F 40.7 °F 32.0 °F 61% 30.05 in 10.0 mi SSW 6.9 mph - N/A   Overcast
9:56 AM 48.9 °F - 34.0 °F 56% 30.07 in 10.0 mi WSW 10.4 mph - N/A   Partly Cloudy
11:04 AM 50.0 °F - 37.4 °F 62% 30.10 in 10.0 mi West 11.5 mph - N/A   Mostly Cloudy
11:17 AM 51.8 °F - 37.4 °F 58% 30.10 in 10.0 mi West 11.5 mph - N/A   Mostly Cloudy
11:39 AM 51.8 °F - 37.4 °F 58% 30.11 in 10.0 mi West 12.7 mph - N/A   Mostly Cloudy
12:56 PM 54.9 °F - 36.0 °F 49% 30.13 in 10.0 mi WNW 11.5 mph 18.4 mph N/A   Mostly Cloudy
1:56 PM 54.0 °F - 36.9 °F 52% 30.16 in 10.0 mi WNW 16.1 mph - N/A   Mostly Cloudy
2:56 PM 54.0 °F - 36.0 °F 51% 30.18 in 10.0 mi WNW 17.3 mph 23.0 mph N/A   Mostly Cloudy
3:56 PM 50.0 °F - 37.4 °F 62% 30.19 in 10.0 mi NW 12.7 mph - N/A   Scattered Clouds
4:46 PM 48.2 °F - 35.6 °F 62% 30.21 in 10.0 mi WNW 9.2 mph - N/A   Overcast
4:56 PM 47.8 °F - 36.0 °F 63% 30.22 in 10.0 mi WNW 10.4 mph - N/A   Overcast
5:56 PM 45.0 °F 39.3 °F 34.9 °F 68% 30.26 in 10.0 mi WNW 11.5 mph - N/A   Overcast
6:56 PM 43.0 °F 37.7 °F 34.0 °F 71% 30.27 in 10.0 mi NW 9.2 mph - N/A   Overcast
7:56 PM 41.0 °F 35.8 °F 32.9 °F 73% 30.28 in 10.0 mi NW 8.1 mph - N/A   Overcast
8:56 PM 41.0 °F 35.8 °F 32.0 °F 70% 30.29 in 10.0 mi NNW 8.1 mph - N/A   Overcast
9:56 PM 39.9 °F 33.9 °F 32.0 °F 73% 30.30 in 10.0 mi NNW 9.2 mph - N/A   Overcast
10:56 PM 37.9 °F 32.1 °F 30.0 °F 73% 30.31 in 10.0 mi NNW 8.1 mph - N/A   Overcast
11:56 PM 36.9 °F 32.2 °F 29.1 °F 74% 30.30 in 10.0 mi North 5.8 mph - N/A   Overcast